スミス彗星

C/2019 K7 ( Smith )

English version
Home page
Updated on December 9, 2019

---------------------------------------------------------------------

・ プロフィール

発見日 2019年5月30日
発見光度 17.7等
発見者 Ken W. Smith (Asteroid Terrestrial-Impact Last Alert System (ATLAS) search program)

・ 写真集

・ 軌道要素

Epoch 2020 May 31.0 TT = JDT 2459000.5
T 2020 June 16.90596 TT                                 Williams
q   4.4749299            (2000.0)            P               Q
z  -0.0003160      Peri.   27.29264     +0.46156508     -0.44584597
 +/-0.0000095      Node   307.92417     -0.88099557     -0.12907850
e   1.0014140      Incl.  103.53147     +0.10394460     +0.88575398
From 237 observations 2019 May 30-Oct. 30, mean residual 0".4.

・ 星図

・ 光度変化

        m1 = 6.0 + 5 logΔ + 10.0 log r

---------------------------------------------------------------------

軌道要素はM.P.E.C. 2019-V116に掲載されたものです。
星図はステラナビゲータ Ver.10 (アストロアーツ) で作成したものです。
光度グラフはComet for Windowsで作成したものです。

---------------------------------------------------------------------

Copyright(C) Seiichi Yoshida (comet@aerith.net). All rights reserved.